Regional Weather Roundup
Issued by NWS Huntsville, AL

Home | Current Version | Previous Version | Text Only | Print | Product List | Glossary On
Versions: 1 2 3 4 5 6 7 8 9 10 11 12 13 14 15 16 17 18 19 20 21 22 23 24 25 26 27 28 29 30 31 32 33 34 35 36 37 38 39 40 41 42 43 44 45 46 47 48 49 50
000
ASUS44 KHUN 290710
RWRHUN

WEATHER ROUNDUP FOR THE TENNESSEE VALLEY
NATIONAL WEATHER SERVICE HUNTSVILLE AL
200 AM CDT MON AUG 29 2016

ALZ001>004-290800-
NORTHWEST ALABAMA

CITY           SKY/WX    TMP DP  RH WIND       PRES   REMARKS
COURTLAND HCN    N/A     72 N/A N/A CALM        N/A
RUSSELLVILLE     N/A     70 N/A N/A MISG        N/A
SHOALS AIRPORT CLEAR     75  70  84 CALM      30.09F
SHOALS TVA RES   N/A     75 N/A N/A MISG        N/A
$$

ALZ005>007-016-290800-
NORTH CENTRAL ALABAMA

CITY           SKY/WX    TMP DP  RH WIND       PRES   REMARKS
CULLMAN AG STN   N/A     70 N/A N/A CALM        N/A
DECATUR AP     CLEAR     71  70  96 MISG      30.09F
HUNTSVILLE AP  CLEAR     74  69  85 E5        30.08F
MERIDIANVILLE  CLEAR     70  64  83 CALM      30.10F
REDSTONE ARSN  CLEAR     73  69  87 CALM      30.07F
VINEMONT AP    FAIR      74  68  83 NE5       30.12S
$$

ALZ008>010-290800-
NORTHEAST ALABAMA

CITY           SKY/WX    TMP DP  RH WIND       PRES   REMARKS
ALBERTVILLE    CLEAR     72  72 100 CALM      30.10F
FORT PAYNE     CLEAR     70  66  88 CALM      30.11F
SCOTTSBORO AP  CLEAR     72  72 100 CALM      30.11F
SCOTTSBORO HCN   N/A     72 N/A N/A MISG        N/A
VALLEY HEAD      N/A     70 N/A N/A MISG        N/A
$$

TNZ076-096-097-290800-
SOUTHEASTERN MIDDLE TENNESSEE

CITY           SKY/WX    TMP DP  RH WIND       PRES   REMARKS
TULLAHOMA      CLEAR     72  70  94 CALM      30.13F
WINCHESTER     CLEAR     70  68  94 SE6       30.12F
$$

...SURROUNDING SITES...

CITY           SKY/WX    TMP DP  RH WIND       PRES   REMARKS
ATLANTA        PTCLDY    76  67  73 E8        30.10F
ANNISTON       PTCLDY    76  70  82 CALM      30.08S
BIRMINGHAM     CLEAR     77  71  82 NE5       30.08F
CHATTANOOGA    CLEAR     74  72  93 CALM      30.12F
DALTON         PTCLDY    72  72 100 CALM      30.12F
GADSDEN        CLEAR     72  70  93 CALM      30.09F
GOLDEN TRNGL   CLEAR     79  66  65 E6        30.03S
JACKSON TN     CLEAR     76  73  91 CALM      30.09F
MEMPHIS        PTCLDY    83  71  67 E6        30.06F
NASHVILLE      CLEAR     74  68  81 E3        30.12F
OXFORD MS      FAIR      75  72  88 NE3       30.07F
ROME           PTCLDY    73  70  90 NE3       30.10F
SAVANNAH       CLEAR     75  72  88 CALM      30.07S
TUPELO         PTCLDY    76  72  87 N5        30.05F
TUSCALOOSA     CLEAR     77  73  87 NE3       30.03F
$$

...GULF COAST WEATHER...

CITY           SKY/WX    TMP DP  RH WIND       PRES   REMARKS
GULFPORT       CLEAR     75  74  96 N3        29.96F
PASCAGOULA     CLEAR     74  74 100 CALM      29.97F
MOBILE         PTCLDY    74  73  97 CALM      29.98F
GULF SHORES    MOSUNNY   74  74 100 N6        29.96F
PENSACOLA      PTCLDY    78  75  90 CALM      29.96S
DESTIN         CLEAR     82  77  84 NE3       29.96F HX  90
PANAMA CITY    CLEAR     79  74  85 E6        29.97S
APPALACHICOLA  CLEAR     84  76  76 E13       29.95F HX  93
$$




USA.gov is the U.S. government's official web portal to all federal, state and local government web resources and services.